Weather History for LESO - September, 2013

Change the Weather History Date:

Friday, September 27, 2013

  Actual Average Record
Temperature  
Mean Temperature 75 °F -  
Max Temperature 86 °F 68 °F 86 °F (2013)
Min Temperature 64 °F 55 °F 50 °F (2002)
Cooling Degree Days 10    
Growing Degree Days 25 (Base 50)    
Moisture  
Dew Point 62 °F    
Average Humidity 61    
Maximum Humidity 88    
Minimum Humidity 35    
Precipitation  
Precipitation 0.00 in - - ()
Sea Level Pressure  
Sea Level Pressure 29.75 in    
Wind  
Wind Speed 2 mph ()    
Max Wind Speed 9 mph    
Max Gust Speed -    
Averages and records for this station are not official NWS values.
T = Trace of Precipitation, MM = Missing Value Source: Averaged Metar Reports

Daily Weather History Graph

Daily Weather History Graph

Search for Another Location

Airport or City:

Trip Planner

Search our weather history database for the weather conditions in past years. The results will help you decide how hot, cold, wet, or windy it might be!

Date:

Astronomy

Sep. 27, 2013 Rise Set
Actual Time 8:00 AM CEST 7:55 PM CEST
Civil Twilight 7:31 AM CEST 8:23 PM CEST
Nautical Twilight 6:58 AM CEST 8:56 PM CEST
Astronomical Twilight 6:24 AM CEST 9:30 PM CEST
Moon 12:33 AM CEST (9/27) 3:32 PM CEST (9/27)
Length of Visible Light 12h 52m
Length of Day
11h 55m
Waning Gibbous, 48% of the Moon is Illuminated
Sep 27
Waning Gibbous
Oct 5
New
Oct 12
First Quarter
Oct 19
Full
Oct 27
Last Quarter

Hourly Weather History & Observations

Time (CEST) Temp. Heat Index Dew Point Humidity Pressure Visibility Wind Dir Wind Speed Gust Speed Precip Events Conditions
5:30 AM 64.4 °F - 60.8 °F 88% 29.77 in - Variable 2.3 mph - N/A   Clear
6:00 AM 66.2 °F - 60.8 °F 83% 29.77 in - Variable 2.3 mph - N/A   Clear
6:30 AM 66.2 °F - 60.8 °F 83% 29.77 in - SW 4.6 mph - N/A   Clear
7:00 AM 68.0 °F - 59.0 °F 73% 29.77 in - SW 3.5 mph - N/A   Clear
7:30 AM 69.8 °F - 60.8 °F 73% 29.77 in - Variable 1.2 mph - N/A   Clear
8:00 AM 66.2 °F - 60.8 °F 83% 29.77 in - Variable 1.2 mph - N/A   Clear
8:30 AM 68.0 °F - 59.0 °F 73% 29.77 in - WSW 3.5 mph - N/A   Clear
9:00 AM 68.0 °F - 60.8 °F 78% 29.80 in - Variable 1.2 mph - N/A   Clear
9:30 AM 68.0 °F - 60.8 °F 78% 29.80 in - Variable 2.3 mph - N/A   Clear
10:00 AM 69.8 °F - 60.8 °F 73% 29.80 in - Calm Calm - N/A   Clear
10:30 AM 71.6 °F - 64.4 °F 78% 29.80 in - Calm Calm - N/A   Clear
11:00 AM 77.0 °F - 64.4 °F 65% 29.80 in - South 4.6 mph - N/A   Clear
11:30 AM 80.6 °F 81.8 °F 62.6 °F 54% 29.80 in - Variable 1.2 mph - N/A   Clear
12:00 PM 82.4 °F 82.5 °F 59.0 °F 45% 29.80 in - Variable 2.3 mph - N/A   Clear
12:30 PM 82.4 °F 82.5 °F 59.0 °F 45% 29.77 in - Calm Calm - N/A   Clear
1:00 PM 82.4 °F 82.5 °F 59.0 °F 45% 29.77 in - SW 3.5 mph - N/A   Clear
1:30 PM 86.0 °F 86.1 °F 60.8 °F 43% 29.77 in - Variable 5.8 mph - N/A   Clear
2:00 PM 86.0 °F 84.5 °F 55.4 °F 35% 29.77 in - SSW 6.9 mph - N/A   Clear
2:30 PM 86.0 °F 84.5 °F 55.4 °F 35% 29.77 in - SSW 3.5 mph - N/A   Clear
3:00 PM 84.2 °F 84.4 °F 60.8 °F 45% 29.74 in - South 5.8 mph - N/A   Clear
3:30 PM 84.2 °F 85.0 °F 62.6 °F 48% 29.74 in - ESE 4.6 mph - N/A   Clear
4:00 PM 80.6 °F 81.5 °F 60.8 °F 51% 29.74 in - NNW 4.6 mph - N/A   Clear
4:30 PM 80.6 °F 81.5 °F 60.8 °F 51% 29.71 in - Variable 1.2 mph - N/A   Clear
5:00 PM 80.6 °F 82.7 °F 66.2 °F 61% 29.71 in - Variable 1.2 mph - N/A   Clear
5:30 PM 82.4 °F 83.9 °F 64.4 °F 54% 29.71 in - Variable 1.2 mph - N/A   Clear
6:00 PM 80.6 °F 82.7 °F 66.2 °F 61% 29.68 in - Calm Calm - N/A   Clear
6:30 PM 80.6 °F 82.7 °F 66.2 °F 61% 29.68 in - Calm Calm - N/A   Clear
7:00 PM 78.8 °F - 66.2 °F 65% 29.68 in - Calm Calm - N/A   Clear
7:30 PM 77.0 °F - 68.0 °F 74% 29.68 in - Calm Calm - N/A   Clear
8:00 PM 77.0 °F - 68.0 °F 74% 29.68 in - Variable 2.3 mph - N/A   Clear
8:30 PM 80.6 °F 82.3 °F 64.4 °F 58% 29.68 in - SE 5.8 mph - N/A   Clear
9:00 PM 80.6 °F 80.8 °F 57.2 °F 45% 29.68 in - SSE 9.2 mph - N/A   Clear
9:30 PM 78.8 °F - 57.2 °F 47% 29.68 in - SSE 6.9 mph - N/A   Clear